Wind_Speed
19 19 19 20 20 21 21 21 22 23 23 23 24 24 25 25 25 25 25 25 25 25 26 26 26 27 27 27 27 28 29 29 30 31 32 33 34 35
21 21 21 22 22 23 23 24 24 24 25 26 26 26 27 28 27 27 27 27 28 28 28 28 28 29 29 29 31 32 32 33 34 35 36 37 38 38
22 23 23 23 24 24 25 25 25 25 26 26 27 27 28 28 28 29 29 29 30 30 31 31 31 31 31 33 34 34 36 36 37 39 40 41 42 43
23 24 25 25 26 26 26 26 26 27 27 27 27 28 28 29 30 29 30 31 32 32 33 33 34 35 35 35 36 37 39 40 41 42 43 44 44 45
23 24 25 25 26 26 26 27 26 26 26 27 28 28 28 29 29 30 31 32 32 33 33 34 34 35 37 38 39 40 42 43 44 44 44 45 45 46
24 25 25 26 26 26 26 26 26 25 26 28 28 29 29 29 30 31 32 33 33 34 35 36 37 38 38 39 40 41 42 43 43 45 46 47 48 49
24 25 24 24 25 26 25 25 26 27 27 29 30 30 30 30 31 32 33 34 34 35 37 38 39 40 40 40 40 41 43 44 45 46 48 48 49 50
23 24 23 23 24 24 25 25 26 27 28 29 30 31 31 32 32 33 34 35 36 38 39 41 41 40 40 41 42 44 45 47 48 49 50 50 51 51
22 22 23 23 23 23 24 26 27 28 29 30 31 31 32 32 34 35 36 37 38 38 40 41 41 41 42 43 45 46 47 48 49 51 51 51 51 51
21 21 22 23 23 24 25 26 27 28 29 29 29 30 32 33 34 35 37 38 38 39 39 40 41 43 44 44 45 46 48 49 50 50 50 50 50 50
21 21 22 23 24 25 26 26 27 28 28 29 29 30 31 32 32 34 35 36 37 37 38 40 41 43 44 44 45 46 46 47 47 47 47 47 48 48
23 23 23 24 25 25 26 26 27 27 28 28 29 30 31 31 32 33 34 35 36 37 38 39 40 41 42 42 43 44 44 44 44 44 44 45 46 46
23 24 24 24 25 25 25 26 27 27 28 29 30 30 31 31 32 33 35 35 36 37 38 39 39 40 41 42 41 41 41 41 41 41 42 43 44 45
24 25 25 25 25 26 26 27 27 28 29 30 30 31 32 33 33 34 34 35 36 37 38 38 39 40 40 40 39 39 39 39 40 41 42 43 43 43
25 25 25 26 27 28 28 28 28 29 30 31 31 32 33 34 34 35 35 36 36 36 37 37 38 38 38 38 38 37 38 39 40 41 41 41 42 41
26 26 26 27 28 28 29 29 29 30 30 31 32 33 34 34 35 36 36 36 35 36 36 36 37 37 36 36 35 36 36 37 38 39 39 39 39 38
28 28 28 28 28 29 30 30 30 31 32 32 33 34 35 36 36 36 36 35 35 35 35 35 35 34 34 34 34 34 35 35 35 35 35 35 35 35
29 29 29 29 29 30 31 31 31 32 32 33 34 35 35 35 35 35 35 34 34 34 33 32 32 32 32 31 32 32 32 31 31 32 32 32 32 32
30 30 29 30 31 32 32 32 32 32 33 34 34 34 33 33 33 33 33 32 32 31 31 30 30 30 29 30 29 29 29 29 30 30 30 30 31 31
30 30 30 31 31 32 32 32 32 32 32 33 33 33 32 31 31 31 30 29 29 29 29 28 28 27 27 27 27 27 27 28 28 28 29 29 30 30
30 30 30 31 31 32 32 32 31 31 31 32 31 30 30 30 29 28 28 28 27 27 27 26 26 26 25 25 25 25 26 26 27 27 28 28 28 29
29 29 30 30 30 31 31 31 31 30 30 29 28 27 27 27 27 27 27 26 26 26 26 25 24 24 24 24 24 25 25 26 26 27 27 27 27 28
29 29 29 30 30 30 30 30 30 29 28 27 26 26 26 27 27 26 26 25 25 25 24 24 24 23 24 24 24 24 25 25 26 27 27 27 27 27
Wind_Direction
264 266 268 270 272 272 274 276 277 276 275 275 275 276 276 277 276 276 277 277 278 278 279 281 282 281 283 283 284 286 286 285 285 286 286 287 286 286
266 267 269 271 272 273 275 276 277 277 276 276 276 276 277 277 277 278 277 278 278 278 279 279 281 282 282 282 284 285 286 286 285 285 285 286 286 286
267 269 270 272 274 274 276 277 277 277 276 277 277 276 277 277 278 278 277 278 278 278 278 278 279 280 281 282 283 284 285 286 285 285 286 285 286 286
268 269 271 273 273 275 277 276 277 276 275 277 278 279 279 278 279 280 279 278 280 280 280 280 281 281 282 282 283 284 285 285 285 287 287 286 286 287
270 272 272 273 274 275 277 277 279 278 276 276 278 280 280 280 280 281 281 283 282 282 282 282 283 283 283 283 285 286 286 287 287 288 288 288 288 288
272 274 274 275 275 277 277 277 279 279 277 278 279 280 281 281 281 282 283 284 285 284 284 285 285 285 285 286 287 289 289 289 289 289 290 290 290 290
274 276 277 277 276 277 277 277 279 279 279 279 280 280 281 282 282 282 283 285 285 285 287 287 288 288 288 289 289 289 290 290 291 291 292 291 291 291
277 276 276 277 278 277 278 280 281 281 281 281 280 282 282 282 283 284 284 285 286 288 289 289 291 292 291 290 290 291 291 292 293 293 293 292 292 291
279 278 277 278 278 278 281 281 280 281 280 281 281 283 282 283 283 285 286 286 287 289 290 291 292 292 292 291 291 291 292 293 294 293 293 292 292 292
281 281 282 280 279 280 281 283 285 285 285 284 284 285 285 285 286 287 287 286 287 288 290 291 292 293 293 293 293 293 294 295 295 294 293 293 293 293
284 284 283 282 283 285 286 285 284 287 288 289 287 288 289 288 288 288 290 290 290 290 291 292 293 295 295 295 295 296 296 296 296 295 295 295 295 295
286 288 287 286 286 287 287 286 286 287 289 291 293 293 292 291 291 291 293 293 294 294 294 295 296 297 297 297 297 298 298 297 296 296 296 297 298 298
286 288 288 288 290 290 288 287 288 289 291 293 294 294 293 293 294 296 296 297 297 297 297 298 298 298 298 299 299 299 299 300 301 301 301 301 302 302
286 288 288 289 291 293 292 292 291 293 294 295 295 295 295 297 299 300 299 299 300 300 300 300 301 301 300 300 301 301 302 302 304 305 305 305 305 305
289 288 289 289 291 293 293 292 292 293 295 296 296 296 298 298 298 298 299 300 300 300 301 301 301 301 302 302 303 303 304 305 305 306 307 308 309 308
290 289 288 289 290 292 293 294 294 294 296 296 296 298 299 298 296 297 299 300 301 302 302 302 301 302 303 303 304 306 306 308 308 309 310 311 312 311
288 288 288 290 291 292 293 294 294 294 295 295 296 297 298 298 299 299 299 301 301 302 301 302 303 303 304 305 307 308 310 311 312 313 313 314 315 315
286 287 288 290 291 292 293 293 294 294 295 295 297 298 298 298 299 300 300 301 301 302 303 305 305 305 306 308 309 311 313 315 316 317 318 318 319 319
286 287 288 290 292 293 293 293 294 295 296 296 297 297 297 298 300 300 300 301 302 304 305 306 306 307 309 311 312 313 316 318 319 320 321 321 322 322
285 287 289 291 293 294 294 294 294 295 295 295 296 296 297 298 300 301 301 302 304 305 307 307 308 309 311 313 314 316 317 320 321 323 324 324 324 324
285 286 288 290 292 293 294 295 294 294 294 294 295 296 297 299 300 302 303 304 305 307 308 309 310 312 313 315 317 318 319 321 322 323 325 326 327 328
285 287 289 290 292 293 295 295 294 294 294 295 296 297 298 299 300 302 303 305 306 307 307 309 310 313 315 318 319 319 320 321 323 324 325 327 329 330
285 286 287 289 291 293 294 294 295 294 294 295 297 298 300 300 301 301 303 305 306 307 307 308 310 313 315 317 318 319 321 322 323 325 327 329 330 331
Height
5888 5888 5888 5887 5887 5887 5887 5886 5886 5885 5884 5883 5882 5881 5880 5879 5878 5877 5876 5876 5874 5873 5872 5871 5869 5868 5866 5865 5863 5862 5860 5859 5857 5855 5853 5851 5849 5847
5883 5883 5883 5882 5882 5882 5881 5880 5880 5879 5878 5877 5876 5875 5874 5873 5872 5871 5870 5869 5868 5867 5865 5864 5862 5861 5860 5858 5856 5854 5853 5850 5848 5846 5844 5842 5840 5838
5878 5878 5877 5877 5876 5876 5875 5875 5874 5873 5871 5871 5869 5868 5867 5866 5865 5864 5863 5862 5861 5859 5858 5856 5855 5853 5852 5850 5848 5846 5844 5841 5839 5837 5834 5832 5829 5827
5872 5872 5871 5871 5870 5870 5869 5868 5867 5866 5865 5864 5863 5861 5860 5859 5858 5857 5855 5854 5853 5851 5850 5848 5846 5844 5843 5841 5839 5836 5834 5831 5829 5826 5823 5820 5818 5814
5867 5866 5865 5865 5864 5864 5863 5862 5861 5860 5858 5857 5856 5855 5853 5852 5851 5850 5848 5846 5845 5843 5841 5839 5837 5835 5833 5831 5829 5826 5823 5821 5818 5814 5811 5808 5805 5802
5861 5860 5859 5858 5858 5857 5856 5855 5854 5853 5852 5850 5849 5848 5846 5845 5843 5842 5840 5838 5836 5834 5832 5830 5828 5825 5823 5821 5818 5815 5812 5809 5805 5802 5799 5795 5792 5788
5855 5854 5853 5852 5851 5850 5850 5848 5847 5846 5845 5843 5842 5840 5839 5837 5835 5833 5831 5830 5827 5825 5823 5820 5818 5816 5813 5810 5807 5804 5800 5797 5793 5790 5786 5782 5778 5774
5849 5848 5847 5846 5845 5844 5843 5842 5841 5839 5838 5836 5834 5833 5832 5830 5828 5825 5823 5821 5819 5817 5813 5810 5808 5805 5802 5799 5796 5792 5789 5785 5780 5776 5772 5768 5763 5759
5843 5842 5841 5840 5839 5838 5836 5835 5833 5832 5830 5829 5827 5826 5824 5821 5819 5817 5815 5812 5809 5807 5803 5800 5797 5794 5791 5787 5784 5780 5776 5772 5767 5762 5758 5753 5749 5744
5838 5836 5835 5834 5833 5831 5830 5828 5826 5825 5823 5821 5819 5817 5815 5813 5811 5808 5805 5803 5800 5797 5793 5790 5787 5783 5779 5775 5772 5768 5763 5759 5754 5749 5744 5739 5734 5730
5832 5831 5829 5828 5827 5825 5823 5821 5819 5817 5815 5813 5811 5808 5806 5804 5801 5799 5796 5793 5790 5787 5783 5780 5776 5772 5768 5763 5759 5755 5751 5746 5741 5736 5731 5726 5721 5716
5826 5825 5823 5821 5820 5818 5816 5813 5812 5810 5808 5805 5803 5800 5797 5795 5792 5790 5787 5783 5780 5777 5773 5769 5765 5761 5757 5752 5748 5743 5738 5734 5729 5724 5719 5714 5708 5703
5820 5818 5817 5815 5813 5811 5808 5806 5805 5802 5800 5797 5794 5792 5789 5786 5783 5780 5777 5774 5770 5767 5763 5759 5755 5750 5746 5742 5737 5732 5727 5722 5717 5712 5707 5702 5696 5690
5814 5812 5810 5808 5806 5804 5801 5799 5797 5795 5792 5789 5787 5784 5781 5778 5775 5771 5768 5764 5760 5757 5753 5749 5745 5740 5736 5731 5726 5721 5716 5711 5706 5701 5696 5691 5685 5679
5806 5804 5803 5801 5799 5796 5794 5791 5789 5787 5784 5781 5778 5776 5773 5769 5766 5762 5759 5755 5751 5747 5743 5739 5735 5730 5725 5721 5716 5711 5707 5702 5696 5691 5685 5679 5673 5667
5799 5797 5795 5793 5791 5789 5786 5784 5781 5779 5775 5773 5770 5767 5763 5760 5757 5753 5749 5745 5742 5738 5733 5729 5725 5720 5716 5711 5706 5702 5697 5692 5686 5681 5675 5669 5663 5657
5792 5790 5788 5786 5783 5781 5778 5776 5773 5770 5767 5764 5761 5757 5754 5751 5747 5743 5739 5735 5732 5728 5724 5720 5715 5711 5706 5702 5697 5692 5688 5683 5677 5672 5666 5661 5655 5649
5784 5782 5779 5777 5775 5772 5770 5767 5764 5761 5758 5755 5752 5748 5745 5741 5737 5734 5730 5726 5723 5719 5714 5710 5706 5702 5698 5693 5689 5684 5680 5675 5670 5664 5659 5654 5648 5642
5775 5773 5771 5768 5766 5764 5761 5758 5755 5752 5749 5746 5743 5739 5736 5732 5728 5725 5721 5718 5714 5710 5706 5702 5698 5694 5690 5686 5681 5677 5672 5668 5663 5658 5652 5647 5641 5635
5767 5765 5762 5760 5757 5755 5752 5749 5746 5743 5740 5737 5734 5730 5727 5723 5720 5716 5713 5709 5706 5702 5699 5695 5691 5687 5683 5679 5675 5670 5666 5661 5656 5651 5646 5641 5635 5629
5758 5756 5754 5751 5749 5746 5743 5740 5737 5734 5731 5728 5724 5721 5718 5715 5712 5708 5705 5702 5698 5695 5691 5688 5684 5680 5676 5672 5668 5664 5660 5656 5651 5646 5641 5636 5630 5624
5749 5747 5745 5742 5740 5737 5734 5731 5728 5725 5722 5719 5716 5713 5710 5707 5704 5701 5698 5695 5691 5688 5684 5681 5677 5674 5670 5666 5662 5658 5654 5650 5646 5641 5636 5631 5625 5619
5740 5738 5736 5733 5731 5728 5726 5723 5720 5717 5714 5711 5708 5706 5703 5700 5697 5694 5691 5688 5684 5681 5678 5675 5671 5668 5664 5660 5657 5653 5649 5644 5640 5635 5631 5625 5620 5615